Weather History for Louisburg, NC

Change the Weather History Date:

Thursday, January 2, 2014

  Actual Average (KRDU) Record (KRDU)
Temperature  
Mean Temperature 44 °F 41 °F  
Max Temperature 50 °F 51 °F 79 °F (1952)
Min Temperature 39 °F 31 °F 8 °F (1928)
Degree Days  
Heating Degree Days 20 24  
Month to date heating degree days 48  
Since 1 July heating degree days 1299  
Cooling Degree Days 0 0  
Month to date cooling degree days 0  
Year to date cooling degree days 0  
Moisture  
Dew Point 39 °F    
Average Humidity 78    
Maximum Humidity 93    
Minimum Humidity 57    
Precipitation  
Precipitation 0.28 in 0.10 in 0.79 in (1979)
Month to date precipitation 0.20  
Year to date precipitation 0.20  
Snow  
Snow 0.00 in 0.00 in 4.30 in (2002)
Month to date snowfall 0.1  
Since 1 July snowfall 0.8  
Snow Depth -    
Sea Level Pressure  
Sea Level Pressure 29.84 in    
Wind  
Wind Speed 1 mph (SSW)    
Max Wind Speed 8 mph    
Max Gust Speed -    
Visibility 8 miles    
Events Rain    
T = Trace of Precipitation, MM = Missing Value Source: NWS Daily Summary

Daily Weather History Graph

Daily Weather History Graph

Search for Another Location

Airport:

Trip Planner

Search our weather history database for the weather conditions in past years. The results will help you decide how hot, cold, wet, or windy it might be!

Date:

Astronomy

Jan. 02, 2014 Rise Set
Actual Time 7:24 AM EST 5:10 PM EST
Civil Twilight 6:55 AM EST 5:39 PM EST
Nautical Twilight 6:23 AM EST 6:11 PM EST
Astronomical Twilight 5:52 AM EST 6:42 PM EST
Moon 8:07 AM EST (1/2) 7:01 PM EST (1/2)
Length of Visible Light 10h 43m
Length of Day
9h 46m
New Moon, 2% of the Moon is Illuminated
Jan 2
New Moon
Jan 7
First Quarter
Jan 15
Full
Jan 24
Last Quarter
Jan 30
New

Hourly Weather History & Observations

Time (EST) Temp. Windchill Dew Point Humidity Pressure Visibility Wind Dir Wind Speed Gust Speed Precip Events Conditions
12:15 AM 44.6 °F - 30.2 °F 57% 30.15 in 10.0 mi Calm Calm - N/A   Overcast
12:35 AM 42.8 °F - 33.8 °F 70% 30.14 in 10.0 mi Calm Calm - N/A   Overcast
12:55 AM 42.8 °F - 33.8 °F 70% 30.13 in 10.0 mi Calm Calm - N/A   Overcast
1:15 AM 42.8 °F - 33.8 °F 70% 30.12 in 10.0 mi Calm Calm - N/A   Scattered Clouds
1:35 AM 41.0 °F - 33.8 °F 76% 30.11 in 10.0 mi Calm Calm - N/A   Clear
1:55 AM 41.0 °F - 33.8 °F 76% 30.11 in 10.0 mi Calm Calm - N/A   Clear
2:15 AM 41.0 °F - 35.6 °F 81% 30.11 in 10.0 mi Calm Calm - N/A   Clear
2:35 AM 41.0 °F 38.0 °F 33.8 °F 76% 30.11 in 10.0 mi South 4.6 mph - N/A   Clear
2:55 AM 39.2 °F - 33.8 °F 81% 30.10 in 10.0 mi Calm Calm - N/A   Clear
3:15 AM 39.2 °F - 33.8 °F 81% 30.08 in 10.0 mi Calm Calm - N/A   Scattered Clouds
3:35 AM 39.2 °F - 33.8 °F 81% 30.08 in 10.0 mi Calm Calm - N/A   Scattered Clouds
3:55 AM 41.0 °F - 33.8 °F 76% 30.07 in 10.0 mi Calm Calm - N/A   Scattered Clouds
4:15 AM 41.0 °F - 35.6 °F 81% 30.06 in 10.0 mi Calm Calm - N/A   Clear
4:35 AM 41.0 °F - 35.6 °F 81% 30.05 in 10.0 mi Calm Calm - N/A   Clear
4:55 AM 41.0 °F - 35.6 °F 81% 30.04 in 10.0 mi Calm Calm - N/A   Clear
5:15 AM 41.0 °F - 33.8 °F 76% 30.03 in 10.0 mi Calm Calm - N/A   Scattered Clouds
5:35 AM 42.8 °F - 35.6 °F 76% 30.02 in 10.0 mi Calm Calm - N/A   Overcast
5:55 AM 41.0 °F - 35.6 °F 81% 30.02 in 10.0 mi Calm Calm - N/A   Overcast
6:15 AM 41.0 °F - 35.6 °F 81% 30.02 in 10.0 mi Calm Calm - N/A   Mostly Cloudy
6:35 AM 42.8 °F - 35.6 °F 76% 30.02 in 10.0 mi Calm Calm - N/A   Overcast
6:55 AM 42.8 °F - 35.6 °F 76% 30.00 in 10.0 mi Calm Calm - N/A   Overcast
7:15 AM 42.8 °F - 35.6 °F 76% 29.99 in 10.0 mi Calm Calm - N/A   Overcast
7:35 AM 42.8 °F - 35.6 °F 76% 29.98 in 10.0 mi Calm Calm - N/A   Mostly Cloudy
7:55 AM 41.0 °F 39.0 °F 35.6 °F 81% 29.97 in 10.0 mi South 3.5 mph - N/A   Scattered Clouds
8:15 AM 42.8 °F - 35.6 °F 76% 29.97 in 10.0 mi Calm Calm - N/A   Mostly Cloudy
8:35 AM 42.8 °F - 35.6 °F 76% 29.97 in 10.0 mi Calm Calm - N/A   Overcast
8:55 AM 44.6 °F - 33.8 °F 66% 29.95 in 10.0 mi Calm Calm - N/A   Mostly Cloudy
9:15 AM 44.6 °F - 33.8 °F 66% 29.96 in 10.0 mi Calm Calm - N/A   Scattered Clouds
9:35 AM 44.6 °F - 33.8 °F 66% 29.94 in 10.0 mi Calm Calm - N/A   Mostly Cloudy
9:55 AM 46.4 °F - 33.8 °F 62% 29.95 in 10.0 mi Calm Calm - N/A   Mostly Cloudy
10:15 AM 46.4 °F - 33.8 °F 62% 29.94 in 10.0 mi Calm Calm - N/A   Scattered Clouds
10:35 AM 46.4 °F 45.2 °F 35.6 °F 66% 29.92 in 10.0 mi SSE 3.5 mph - N/A   Clear
10:55 AM 46.4 °F - 35.6 °F 66% 29.91 in 10.0 mi Calm Calm - N/A   Clear
11:15 AM 48.2 °F - 33.8 °F 58% 29.89 in 10.0 mi WSW 3.5 mph - N/A   Scattered Clouds
11:35 AM 48.2 °F - 33.8 °F 58% 29.87 in 10.0 mi Calm Calm - N/A   Scattered Clouds
11:55 AM 48.2 °F - 33.8 °F 58% 29.86 in 10.0 mi Calm Calm - N/A   Scattered Clouds
12:15 PM 48.2 °F - 33.8 °F 58% 29.83 in 10.0 mi SSE 3.5 mph - N/A   Scattered Clouds
12:35 PM 50.0 °F - 35.6 °F 58% 29.82 in 10.0 mi SSE 3.5 mph - N/A   Mostly Cloudy
12:55 PM 50.0 °F - 35.6 °F 58% 29.80 in 10.0 mi SE 4.6 mph - N/A   Overcast
1:15 PM 50.0 °F - 35.6 °F 58% 29.78 in 10.0 mi SSE 4.6 mph - N/A   Overcast
1:35 PM 50.0 °F - 37.4 °F 62% 29.77 in 10.0 mi South 4.6 mph - N/A   Overcast
1:55 PM 50.0 °F - 37.4 °F 62% 29.76 in 10.0 mi South 4.6 mph - N/A   Overcast
2:15 PM 50.0 °F - 41.0 °F 71% 29.75 in 10.0 mi South 4.6 mph - N/A   Overcast
2:35 PM 50.0 °F - 41.0 °F 71% 29.74 in 10.0 mi South 5.8 mph - N/A   Overcast
2:55 PM 50.0 °F - 42.8 °F 76% 29.73 in 10.0 mi South 3.5 mph - N/A   Overcast
3:15 PM 50.0 °F - 42.8 °F 76% 29.72 in 4.0 mi SSW 3.5 mph - N/A   Haze
3:35 PM 50.0 °F - 44.6 °F 82% 29.72 in 2.0 mi Calm Calm - N/A   Drizzle
3:55 PM 50.0 °F - 46.4 °F 87% 29.71 in 1.8 mi Calm Calm - N/A   Drizzle
4:15 PM 50.0 °F - 46.4 °F 87% 29.69 in 2.0 mi Calm Calm - 0.01 in   Drizzle
4:35 PM 50.0 °F - 46.4 °F 87% 29.69 in 1.8 mi Calm Calm - 0.03 in   Heavy Drizzle
4:55 PM 50.0 °F - 46.4 °F 87% 29.67 in 2.5 mi Calm Calm - 0.04 in   Drizzle
5:15 PM 48.2 °F - 46.4 °F 93% 29.64 in 2.5 mi Calm Calm - N/A   Light Drizzle
5:35 PM 48.2 °F - 46.4 °F 93% 29.64 in 2.0 mi Calm Calm - 0.01 in   Drizzle
5:55 PM 48.2 °F - 46.4 °F 93% 29.64 in 2.0 mi Calm Calm - 0.03 in   Drizzle
6:15 PM 48.2 °F - 46.4 °F 93% 29.64 in 2.5 mi Calm Calm - 0.02 in Rain Rain
6:35 PM 48.2 °F - 46.4 °F 93% 29.64 in 3.0 mi Calm Calm - 0.06 in Rain Rain
6:55 PM 48.2 °F - 46.4 °F 93% 29.63 in 3.0 mi Calm Calm - 0.09 in Rain Light Rain
7:15 PM 48.2 °F - 46.4 °F 93% 29.62 in 4.0 mi Calm Calm - 0.01 in   Drizzle
7:35 PM 48.2 °F - 46.4 °F 93% 29.62 in 3.0 mi Calm Calm - 0.02 in   Drizzle
7:55 PM 48.2 °F - 46.4 °F 93% 29.61 in 3.0 mi Calm Calm - 0.03 in   Heavy Drizzle
8:15 PM 48.2 °F - 46.4 °F 93% 29.62 in 4.0 mi Calm Calm - 0.02 in   Drizzle
8:35 PM 48.2 °F - 46.4 °F 93% 29.62 in 5.0 mi NW 5.8 mph - 0.03 in Rain Light Rain
8:55 PM 46.4 °F 45.2 °F 44.6 °F 93% 29.61 in 5.0 mi NW 3.5 mph - 0.06 in Rain Rain
9:15 PM 46.4 °F 42.9 °F 44.6 °F 93% 29.56 in 7.0 mi NNE 6.9 mph - 0.02 in Rain Light Rain
9:35 PM 46.4 °F - 44.6 °F 93% 29.58 in 10.0 mi Calm Calm - 0.03 in Rain Light Rain
9:55 PM 46.4 °F 45.2 °F 44.6 °F 93% 29.60 in 10.0 mi WNW 3.5 mph - 0.03 in   Light Drizzle
10:15 PM 46.4 °F - 44.6 °F 93% 29.61 in 10.0 mi Calm Calm - N/A   Overcast
10:35 PM 46.4 °F 44.3 °F 44.6 °F 93% 29.60 in 10.0 mi WNW 4.6 mph - N/A   Overcast
10:55 PM 46.4 °F 44.3 °F 44.6 °F 93% 29.61 in 10.0 mi WNW 4.6 mph - N/A   Overcast
11:15 PM 46.4 °F 42.4 °F 42.8 °F 87% 29.61 in 10.0 mi WNW 8.1 mph - N/A   Overcast
11:35 PM 46.4 °F 43.5 °F 41.0 °F 81% 29.62 in 10.0 mi WNW 5.8 mph - N/A   Overcast
11:55 PM 46.4 °F 42.9 °F 41.0 °F 81% 29.63 in 10.0 mi NW 6.9 mph - N/A   Overcast